Simultaneous Nadir Overpasses (SNOs) Predictions

Prediction of SNOs between METOP-B and TERRA Satellite Orbit:

Table of predicted SNOs for the next 14.0 days since TLE Epoch: 9/5/2015
Index Date (METOP-B) Time (METOP-B) Lat,Lon (METOP-B) SZA (METOP-B ) Date (TERRA) Time (TERRA) Lat,Lon (TERRA) SZA (TERRA ) Distance(km) Time Diff (sec)
1 09/07/2015 16:10:00 -81.32, 165.02 101.81 09/07/2015 16:10:06 -81.31, 165.01 101.81 0.33 6
2 09/07/2015 17:00:39 81.32, -27.08 78.28 09/07/2015 16:59:32 81.32, -27.25 78.23 3.00 67
3 09/10/2015 10:53:42 81.31, 63.77 79.23 09/10/2015 10:54:51 81.31, 63.83 79.27 0.93 69
4 09/10/2015 11:44:22 -81.32,-128.45 100.71 09/10/2015 11:44:18 -81.31,-128.61 100.74 2.93 4
5 09/13/2015 06:28:04 81.31, 130.28 80.33 09/13/2015 06:29:03 81.31, 130.11 80.33 3.06 59
6 09/1
